Date,TemperatureHighF,TemperatureAvgF,TemperatureLowF,DewpointHighF,DewpointAvgF,DewpointLowF,HumidityHigh,HumidityAvg,HumidityLow,PressureMaxIn,PressureMinIn,WindSpeedMaxMPH,WindSpeedAvgMPH,GustSpeedMaxMPH,PrecipitationSumIn
2013-1-1,31.1,24.1,11.3,14.4,9.3,-1.0,59,53,46,29.86,29.78,0,0,0,0.04
2013-1-2,26.1,15.7,8.2,8.6,1.1,-3.9,57,52,47,29.92,29.83,0,0,0,0.00
2013-1-3,31.6,23.2,12.2,16.9,8.1,-2.9,60,52,48,29.92,29.81,0,0,0,0.00
2013-1-4,29.7,21.5,12.4,12.4,8.1,1.8,65,56,47,29.95,29.83,8,0,29,0.00
2013-1-5,36.5,28.2,18.9,26.7,15.6,8.4,77,59,45,29.95,29.72,15,1,15,0.00
2013-1-6,35.1,32.1,27.9,22.8,18.2,12.4,61,56,49,29.98,29.63,15,2,15,0.00
2013-1-7,36.3,26.6,17.4,17.5,13.1,9.0,79,58,45,30.04,29.81,21,1,21,0.00
2013-1-8,41.7,32.2,25.9,21.4,16.3,11.7,60,52,44,29.89,29.78,16,1,16,0.04
2013-1-9,48.0,38.7,28.2,26.6,20.7,13.0,57,48,42,30.13,29.75,15,3,19,0.08
2013-1-10,43.5,32.0,22.8,34.5,19.1,12.0,89,59,44,30.19,29.69,15,1,15,0.24
2013-1-11,54.5,48.8,38.3,53.6,40.9,33.8,100,76,54,29.69,29.42,19,2,21,0.55
2013-1-12,58.3,50.2,38.7,37.1,33.4,25.1,85,53,41,29.63,29.48,16,1,16,0.31
2013-1-13,38.7,32.4,20.8,35.4,28.0,7.4,96,84,56,29.86,29.48,12,1,12,0.20
2013-1-14,25.0,19.7,15.3,8.7,5.4,1.7,60,53,48,30.10,29.86,0,0,0,0.00
2013-1-15,30.9,20.4,11.5,13.5,7.5,1.6,70,58,46,30.07,29.81,0,0,0,0.00
2013-1-16,35.4,27.2,16.9,17.4,13.9,8.3,79,58,45,29.81,29.54,17,1,17,0.00
2013-1-17,34.3,28.9,19.2,20.1,12.8,3.5,61,51,45,30.01,29.69,15,2,15,0.00
2013-1-18,38.1,28.6,17.8,18.5,11.3,2.6,56,48,44,30.07,29.66,30,2,30,0.00
2013-1-19,49.3,41.7,35.6,27.1,22.1,17.8,53,46,42,29.66,29.42,25,6,25,0.00
2013-1-20,40.1,21.8,15.4,19.9,5.1,0.1,51,48,44,29.89,29.45,20,6,20,0.00
2013-1-21,18.3,12.8,7.7,1.9,-2.7,-7.5,52,49,48,29.86,29.75,20,5,20,0.00
2013-1-22,12.0,6.8,1.9,-3.5,-8.4,-12.9,49,49,49,29.98,29.83,16,3,16,0.00
2013-1-23,19.8,14.4,7.2,7.1,-0.9,-8.2,62,50,48,29.95,29.72,15,3,15,0.00
2013-1-24,21.9,15.7,7.2,7.1,1.8,-3.8,62,54,47,30.22,29.81,10,0,10,0.00
2013-1-25,25.3,21.5,17.1,12.1,6.2,1.2,58,51,48,30.04,29.63,12,1,12,0.00
2013-1-26,26.8,24.5,21.9,11.4,8.9,6.9,57,51,48,30.04,29.72,12,2,12,0.00
2013-1-27,34.9,27.5,19.0,29.9,13.3,4.7,82,55,46,30.04,29.63,16,2,16,0.00
2013-1-28,48.9,42.8,34.9,48.9,42.3,29.5,100,98,81,29.66,29.51,16,1,16,0.24
2013-1-29,58.5,54.8,40.8,58.5,53.2,40.8,100,95,75,29.54,29.04,29,3,29,1.06
2013-1-30,52.7,42.7,26.1,52.2,38.5,11.9,100,86,55,29.13,28.80,17,2,17,0.75
2013-1-31,25.9,18.1,10.2,13.5,3.8,-4.4,63,53,48,29.60,29.13,0,0,0,0.00